Terminal Aerodrome Forecast
Issued by NWS

Home | Current Version | Previous Version | Text Only | Print | Product List | Glossary On
Versions: 1 2 3 4 5 6 7 8 9 10 11 12 13 14 15 16 17 18 19 20 21 22 23 24 25 26 27 28 29 30 31 32 33 34 35
000
FTUS45 KBYZ 262320
TAFLVM
TAF
KLVM 262320Z 2700/2724 25024G30KT P6SM OVC060
     FM270500 26023G30KT P6SM SCT080
     FM271200 25024G32KT P6SM SKC=

USA.gov is the U.S. government's official web portal to all federal, state and local government web resources and services.